Location: Bucharest
(44.4268°N, 26.1025°E)
Time: 06:19:00
(UTC+03:00)

CUBESAT XI-V - Pass Details

Date: 06 July 2022
Orbit: 668 x 690 km, 98.1° (Epoch: 13 August)

Event Time Altitude Azimuth Distance (km) Brightness Sun altitude
Exits shadow 04:02:24 18° 240° (WSW) 1,626 ? -13.3°
Maximum altitude 04:03:57 21° 267° (W) 1,489 ? -13.2°
Drops below altitude 10° 04:07:27 10° 317° (NW) 2,105 ? -12.8°
Sets 04:10:10 0° 333° (NNW) 3,022 ? -12.5°
